Harvey, ND

4:05 AM CDT on October 22, 2019 (GMT -0500)
Harvey

Weather History for K5H4 - September, 2019

Change the Weather History Date:

Wednesday, September 18, 2019

  Actual Average (KRUG) Record (KRUG)
Temperature  
Mean Temperature 66 °F -  
Max Temperature 77 °F 69 °F 91 °F (1989)
Min Temperature 55 °F 43 °F 31 °F (1993)
Cooling Degree Days 1    
Growing Degree Days 16 (Base 50)    
Moisture  
Dew Point 58 °F    
Average Humidity 77    
Maximum Humidity 100    
Minimum Humidity 54    
Precipitation  
Precipitation 0.00 in - - ()
Sea Level Pressure  
Sea Level Pressure 29.72 in    
Wind  
Wind Speed 13 mph (WSW)    
Max Wind Speed 25 mph    
Max Gust Speed 36 mph    
Visibility 10 miles    
Events      
Averages and records for this station are not official NWS values.
T = Trace of Precipitation, MM = Missing Value Source: NWS Daily Summary

Daily Weather History Graph

Daily Weather History Graph

Search for Another Location

Airport or City:

Astronomy

Sep. 18, 2019 Rise Set
Actual Time 7:20 AM CDT 7:46 PM CDT
Civil Twilight 6:49 AM CDT 8:17 PM CDT
Nautical Twilight 6:13 AM CDT 8:53 PM CDT
Astronomical Twilight 5:34 AM CDT 9:31 PM CDT
Moon 10:03 PM CDT (9/18) 11:42 AM CDT (9/18)
Length of Visible Light 13h 27m
Length of Day
12h 25m
Waning Gibbous, 82% of the Moon is Illuminated
Sep 18
Waning Gibbous
Sep 21
Last Quarter
Sep 28
New
Oct 5
First Quarter
Oct 13
Full

Hourly Weather History & Observations

Time (CDT) Temp. Dew Point Humidity Pressure Visibility Wind Dir Wind Speed Gust Speed Precip Events Conditions
12:15 AM 69.8 °F 62.6 °F 78% 29.56 in 10.0 mi SSW 8.1 mph - N/A   Clear
12:35 AM 69.8 °F 60.8 °F 73% 29.58 in 10.0 mi SW 11.5 mph - N/A   Clear
12:55 AM 69.8 °F 59.0 °F 68% 29.58 in 10.0 mi SSW 9.2 mph - N/A   Clear
1:55 AM 66.2 °F 57.2 °F 73% 29.60 in 10.0 mi SSW 10.4 mph - N/A   Clear
2:15 AM 66.2 °F 57.2 °F 73% 29.60 in 10.0 mi SSW 10.4 mph - N/A   Clear
2:35 AM 64.4 °F 55.4 °F 73% 29.60 in 10.0 mi SSW 8.1 mph - N/A   Clear
2:55 AM 64.4 °F 57.2 °F 77% 29.60 in 10.0 mi SW 9.2 mph - N/A   Clear
3:15 AM 62.6 °F 57.2 °F 82% 29.61 in 10.0 mi SW 11.5 mph 17.3 mph N/A   Clear
3:35 AM 62.6 °F 57.2 °F 82% 29.61 in 10.0 mi SW 9.2 mph - N/A   Clear
3:55 AM 60.8 °F 57.2 °F 88% 29.60 in 10.0 mi SW 9.2 mph 16.1 mph N/A   Clear
4:15 AM 60.8 °F 57.2 °F 88% 29.60 in 10.0 mi SW 8.1 mph 15.0 mph N/A   Clear
4:35 AM 59.0 °F 57.2 °F 94% 29.60 in 10.0 mi SSW 10.4 mph 17.3 mph N/A   Clear
4:55 AM 59.0 °F 55.4 °F 88% 29.60 in 10.0 mi SSW 13.8 mph - N/A   Clear
5:15 AM 57.2 °F 53.6 °F 88% 29.60 in 10.0 mi SW 13.8 mph - N/A   Clear
5:35 AM 57.2 °F 53.6 °F 88% 29.59 in 10.0 mi SW 17.3 mph 24.2 mph N/A   Clear
5:55 AM 57.2 °F 53.6 °F 88% 29.60 in 10.0 mi SW 15.0 mph 20.7 mph N/A   Clear
6:15 AM 55.4 °F 53.6 °F 94% 29.61 in 10.0 mi SW 15.0 mph 20.7 mph N/A   Clear
6:35 AM 55.4 °F 53.6 °F 94% 29.61 in 10.0 mi SW 12.7 mph 18.4 mph N/A   Clear
6:55 AM 55.4 °F 53.6 °F 94% 29.62 in 10.0 mi SW 12.7 mph - N/A   Clear
7:15 AM 55.4 °F 53.6 °F 94% 29.61 in 10.0 mi SW 12.7 mph - N/A   Clear
7:35 AM 55.4 °F 55.4 °F 100% 29.61 in 10.0 mi SW 12.7 mph 19.6 mph N/A   Clear
7:55 AM 57.2 °F 55.4 °F 94% 29.61 in 10.0 mi SW 15.0 mph 20.7 mph N/A   Clear
8:15 AM 59.0 °F 55.4 °F 88% 29.63 in 10.0 mi SW 17.3 mph - N/A   Partly Cloudy
8:35 AM 60.8 °F 57.2 °F 88% 29.62 in 10.0 mi SW 16.1 mph - N/A   Clear
8:55 AM 64.4 °F 57.2 °F 77% 29.62 in 10.0 mi SW 18.4 mph - N/A   Clear
9:15 AM 64.4 °F 59.0 °F 83% 29.62 in 10.0 mi WSW 18.4 mph 25.3 mph N/A   Clear
9:35 AM 64.4 °F 59.0 °F 83% 29.63 in 10.0 mi WSW 16.1 mph 26.5 mph N/A   Mostly Cloudy
9:55 AM 68.0 °F 60.8 °F 78% 29.63 in 10.0 mi WSW 18.4 mph 26.5 mph N/A   Overcast
10:15 AM 68.0 °F 60.8 °F 78% 29.65 in 10.0 mi West 18.4 mph 27.6 mph N/A   Mostly Cloudy
10:35 AM 69.8 °F 60.8 °F 73% 29.65 in 10.0 mi West 19.6 mph 31.1 mph N/A   Mostly Cloudy
10:55 AM 71.6 °F 60.8 °F 69% 29.65 in 10.0 mi West 19.6 mph 25.3 mph N/A   Scattered Clouds
11:15 AM 69.8 °F 60.8 °F 73% 29.67 in 10.0 mi West 17.3 mph 28.8 mph N/A   Mostly Cloudy
11:35 AM 69.8 °F 60.8 °F 73% 29.68 in 10.0 mi West 19.6 mph 28.8 mph N/A   Overcast
11:55 AM 69.8 °F 60.8 °F 73% 29.68 in 10.0 mi West 17.3 mph 28.8 mph N/A   Overcast
12:15 PM 73.4 °F 60.8 °F 65% 29.68 in 10.0 mi West 20.7 mph 32.2 mph N/A   Mostly Cloudy
12:35 PM 73.4 °F 60.8 °F 65% 29.69 in 10.0 mi West 25.3 mph 31.1 mph N/A   Mostly Cloudy
12:55 PM 75.2 °F 60.8 °F 61% 29.70 in 10.0 mi West 21.9 mph 34.5 mph N/A   Scattered Clouds
1:15 PM 73.4 °F 60.8 °F 65% 29.71 in 10.0 mi WNW 25.3 mph 32.2 mph N/A   Partly Cloudy
1:35 PM 73.4 °F 60.8 °F 65% 29.72 in 10.0 mi West 23.0 mph 34.5 mph N/A   Scattered Clouds
1:55 PM 73.4 °F 60.8 °F 65% 29.73 in 10.0 mi WNW 20.7 mph 35.7 mph N/A   Mostly Cloudy
2:15 PM 73.4 °F 59.0 °F 61% 29.74 in 10.0 mi West 24.2 mph 35.7 mph N/A   Partly Cloudy
2:35 PM 75.2 °F 59.0 °F 57% 29.75 in 10.0 mi West 19.6 mph 32.2 mph N/A   Clear
2:55 PM 75.2 °F 60.8 °F 61% 29.77 in 10.0 mi WNW 17.3 mph 25.3 mph N/A   Partly Cloudy
3:15 PM 77.0 °F 60.8 °F 57% 29.77 in 10.0 mi WNW 20.7 mph - N/A   Mostly Cloudy
3:35 PM 77.0 °F 60.8 °F 57% 29.78 in 10.0 mi WNW 19.6 mph 27.6 mph N/A   Scattered Clouds
3:55 PM 77.0 °F 60.8 °F 57% 29.78 in 10.0 mi WNW 19.6 mph 27.6 mph N/A   Partly Cloudy
4:15 PM 77.0 °F 59.0 °F 54% 29.78 in 10.0 mi West 17.3 mph 25.3 mph N/A   Clear
4:35 PM 77.0 °F 59.0 °F 54% 29.79 in 10.0 mi WNW 19.6 mph 27.6 mph N/A   Clear
4:55 PM 77.0 °F 59.0 °F 54% 29.79 in 10.0 mi WNW 18.4 mph - N/A   Clear
5:15 PM 77.0 °F 59.0 °F 54% 29.79 in 10.0 mi NW 15.0 mph 24.2 mph N/A   Clear
5:35 PM 77.0 °F 59.0 °F 54% 29.79 in 10.0 mi NW 18.4 mph - N/A   Clear
5:55 PM 77.0 °F 59.0 °F 54% 29.80 in 10.0 mi NW 13.8 mph 20.7 mph N/A   Clear
6:15 PM 75.2 °F 59.0 °F 57% 29.81 in 10.0 mi NW 15.0 mph - N/A   Clear
6:35 PM 75.2 °F 59.0 °F 57% 29.82 in 10.0 mi NW 10.4 mph - N/A   Clear
6:55 PM 73.4 °F 59.0 °F 61% 29.83 in 10.0 mi NW 9.2 mph - N/A   Clear
7:15 PM 71.6 °F 59.0 °F 64% 29.84 in 10.0 mi NW 6.9 mph - N/A   Clear
7:35 PM 68.0 °F 59.0 °F 73% 29.85 in 7.0 mi NW 5.8 mph - N/A   Clear
7:55 PM 66.2 °F 59.0 °F 78% 29.86 in 2.0 mi WNW 5.8 mph - N/A   Haze
8:15 PM 66.2 °F 59.0 °F 78% 29.88 in 7.0 mi WNW 3.5 mph - N/A   Clear
8:35 PM 62.6 °F 59.0 °F 88% 29.88 in 8.0 mi WNW 3.5 mph - N/A   Clear
8:55 PM 60.8 °F 59.0 °F 94% 29.89 in 10.0 mi NW 3.5 mph - N/A   Clear
9:15 PM 59.0 °F 57.2 °F 94% 29.90 in 10.0 mi West 4.6 mph - N/A   Clear
9:35 PM 59.0 °F 59.0 °F 100% 29.91 in 10.0 mi West 3.5 mph - N/A   Clear
9:55 PM 57.2 °F 57.2 °F 100% 29.91 in 10.0 mi West 4.6 mph - N/A   Clear
10:15 PM 57.2 °F 55.4 °F 94% 29.91 in 10.0 mi WSW 4.6 mph - N/A   Clear
10:35 PM 57.2 °F 57.2 °F 100% 29.92 in 9.0 mi SSW 5.8 mph - N/A   Clear
10:55 PM 57.2 °F 55.4 °F 94% 29.93 in 10.0 mi SW 5.8 mph - N/A   Clear
11:15 PM 55.4 °F 55.4 °F 100% 29.94 in 10.0 mi SW 5.8 mph - N/A   Clear
11:35 PM 55.4 °F 55.4 °F 100% 29.94 in 10.0 mi Calm Calm - N/A   Clear
11:55 PM 57.2 °F 55.4 °F 94% 29.94 in 10.0 mi NW 3.5 mph - N/A   Clear